Home > Weather > Kotka > Past weeks

Flag for Finland Past Weather in Kotka, Finland — Yesterday and Last 2 Weeks

Now
66 °F

Sunny.


Feels Like: 66 °F
Forecast: 58 / 69 °F
Wind: 6 mph from South

Location: Utti

Current Time: Jun 29, 2016 at 11:09:04 PM

Latest Report: Jun 29, 2016 at 10:20 PM


Visibility: 10 mi

Pressure: 29.95 "Hg

Humidity: 68%

Dew Point: 55 °F

Location of KotkaLocation

Past Weather in Kotka — Graph

°F

Kotka Temperature Yesterday

Maximum temperature yesterday: 73 °F (at 3:20 PM)
Minimum temperature yesterday: 57 °F (at 12:20 AM)
Average temperature yesterday: 65 °F

High & Low Weather Summary for the Past Weeks

 TemperatureHumidityPressure
High79 °F (Jun 26, 12:20 PM)100% (Jun 17, 12:50 AM)30.21 "Hg (Jun 17, 12:50 AM)
Low50 °F (Jun 15, 1:50 AM)20% (Jun 15, 3:20 PM)29.36 "Hg (Jun 18, 8:50 AM)
Average64 °F74%29.90 "Hg
* Reported Jun 14 10:20 PM — Jun 29 10:20 PM, Kotka, Weather by CustomWeather, © 2016

Note: Actual official high and low records may vary slightly from our data, if they occured in-between our weather recording intervals... More about our weather records

Advertising

Kotka Weather History for the Previous 24 Hours

Scroll right to see more
 ConditionsComfort  
Time TempWeatherWind HumidityBarometerVisibility
10:20 PM
Wed, Jun 29
66 °FSunny.6 mph68%29.95 "Hg10 mi
9:20 PM72 °FPassing clouds.5 mph47%29.92 "HgN/A
8:50 PM72 °FPassing clouds.7 mph47%29.92 "HgN/A
8:20 PM73 °FPassing clouds.8 mph47%29.92 "HgN/A
7:50 PM73 °FPassing clouds.9 mph47%29.92 "HgN/A
7:20 PM73 °FPassing clouds.9 mph41%29.92 "HgN/A
6:50 PM75 °FPassing clouds.10 mph41%29.92 "HgN/A
6:20 PM75 °FPassing clouds.9 mph41%29.92 "HgN/A
5:50 PM73 °FPassing clouds.8 mph47%29.92 "HgN/A
5:20 PM75 °FPassing clouds.12 mph47%29.92 "HgN/A
4:50 PM73 °FPassing clouds.8 mph44%29.92 "HgN/A
4:20 PM75 °FPassing clouds.8 mph41%29.92 "HgN/A
3:50 PM75 °FPassing clouds.8 mph39%29.92 "HgN/A
3:20 PM75 °FSunny.7 mph41%29.92 "Hg10 mi
2:50 PM75 °FPassing clouds.8 mph39%29.92 "HgN/A
2:20 PM73 °FPassing clouds.9 mph41%29.92 "HgN/A
1:50 PM75 °FSunny.7 mph44%29.95 "Hg10 mi
1:20 PM73 °FPassing clouds.8 mph44%29.95 "HgN/A
12:50 PM73 °FSunny.7 mph44%29.95 "Hg10 mi
12:20 PM72 °FPassing clouds.7 mph44%29.95 "HgN/A
11:20 AM72 °FPassing clouds.5 mph53%29.95 "HgN/A
10:50 AM70 °FPassing clouds.5 mph60%29.95 "HgN/A
10:20 AM68 °FSunny.2 mph60%29.95 "Hg10 mi
9:50 AM66 °FSunny.3 mph64%29.95 "Hg10 mi
9:20 AM66 °FSunny.2 mph64%29.95 "Hg10 mi
8:50 AM66 °FPassing clouds.5 mph68%29.95 "HgN/A
8:20 AM66 °FPassing clouds.5 mph68%29.95 "HgN/A
7:50 AM64 °FSunny.5 mph73%29.92 "Hg10 mi
7:20 AM63 °FSunny.5 mph77%29.95 "Hg10 mi
6:50 AM63 °FSunny.7 mph77%29.95 "Hg10 mi
6:20 AM61 °FSunny.6 mph83%29.92 "Hg10 mi
5:50 AM61 °FSunny.3 mph83%29.92 "Hg10 mi
5:20 AM61 °FSunny.3 mph88%29.92 "Hg10 mi
4:50 AM61 °FSunny.2 mph88%29.92 "Hg10 mi
4:20 AM59 °FClear.1 mph94%29.92 "Hg10 mi
3:50 AM59 °FClear.1 mph94%29.92 "Hg10 mi
3:20 AM61 °FClear.1 mph88%29.92 "Hg10 mi
2:50 AM61 °FClear.1 mph88%29.92 "Hg10 mi
2:20 AM61 °FClear.2 mph88%29.92 "Hg10 mi
1:50 AM61 °FClear.No wind88%29.92 "Hg10 mi
1:20 AM61 °FClear.1 mph88%29.92 "Hg10 mi
12:50 AM63 °FClear.3 mph88%29.92 "Hg10 mi
12:20 AM61 °FClear.2 mph88%29.92 "Hg10 mi
11:50 PM
Tue, Jun 28
63 °FClear.3 mph83%29.92 "Hg10 mi
11:20 PM63 °FSunny.5 mph83%29.92 "Hg10 mi
Weather by CustomWeather, © 2016

See weather overviewHow to use our weather pages